This is the latest recevied weather packets stored in our database for station/object SP1BMW-13. If no packets are shown the sender has not sent any weather packets the latest 10 day(s).
| Time | Temp. | Humidity | Pressure | Rain* | Wind** | Luminosity | Snow |
|---|---|---|---|---|---|---|---|
| 1787728153 | 19.44° C | 66% | 1021.5 hPa | 0 mm | 0.45 m/s, 46° | 248 W/m² | - |
| 1787728093 | 19.44° C | 65% | 1021.5 hPa | 0 mm | 0.45 m/s, 49° | 245 W/m² | - |
| 1787728033 | 19.44° C | 65% | 1021.4 hPa | 0 mm | 0.45 m/s, 13° | 242 W/m² | - |
| 1787727973 | 19.44° C | 67% | 1021.5 hPa | 0 mm | 0 m/s | 240 W/m² | - |
| 1787727913 | 18.89° C | 67% | 1021.3 hPa | 0 mm | 0.45 m/s, 43° | 237 W/m² | - |
| 1787727853 | 18.89° C | 67% | 1021.3 hPa | 0 mm | 0.45 m/s, 75° | 235 W/m² | - |
| 1787727793 | 18.89° C | 68% | 1021.3 hPa | 0 mm | 0.89 m/s, 40° | 232 W/m² | - |
| 1787727733 | 18.89° C | 67% | 1021.5 hPa | 0 mm | 0.45 m/s, 68° | 230 W/m² | - |
| 1787727673 | 18.89° C | 67% | 1021.5 hPa | 0 mm | 0.45 m/s, 51° | 228 W/m² | - |
| 1787727613 | 18.89° C | 67% | 1021.5 hPa | 0 mm | 0.45 m/s, 65° | 224 W/m² | - |
| 1787727553 | 18.89° C | 68% | 1021.6 hPa | 0 mm | 0.45 m/s, 46° | 222 W/m² | - |
| 1787727494 | 18.89° C | 68% | 1021.5 hPa | 0 mm | 0.89 m/s, 48° | 221 W/m² | - |
| 1787727433 | 18.89° C | 67% | 1021.4 hPa | 0 mm | 0.89 m/s, 21° | 219 W/m² | - |
| 1787727373 | 18.89° C | 67% | 1021.4 hPa | 0 mm | 1.34 m/s, 48° | 216 W/m² | - |
| 1787727313 | 18.89° C | 68% | 1021.4 hPa | 0 mm | 0.45 m/s, 63° | 213 W/m² | - |
| 1787727253 | 18.89° C | 67% | 1021.4 hPa | 0 mm | 0.89 m/s, 51° | 212 W/m² | - |
| 1787727193 | 18.89° C | 68% | 1021.5 hPa | 0 mm | 0.45 m/s, 56° | 210 W/m² | - |
| 1787727133 | 18.89° C | 68% | 1021.5 hPa | 0 mm | 0.89 m/s, 31° | 207 W/m² | - |
| 1787727073 | 18.89° C | 69% | 1021.4 hPa | 0 mm | 0.45 m/s, 42° | 205 W/m² | - |
| 1787727013 | 18.33° C | 69% | 1021.4 hPa | 0 mm | 0.45 m/s, 3° | 203 W/m² | - |
| 1787726953 | 18.33° C | 69% | 1021.4 hPa | 0 mm | 0.45 m/s, 68° | 201 W/m² | - |
| 1787726893 | 18.33° C | 68% | 1021.5 hPa | 0 mm | 0.45 m/s, 49° | 199 W/m² | - |
| 1787726833 | 18.33° C | 69% | 1021.4 hPa | 0 mm | 0 m/s | 196 W/m² | - |
| 1787726773 | 18.33° C | 69% | 1021.5 hPa | 0 mm | 0.89 m/s, 93° | 195 W/m² | - |
| 1787726713 | 18.33° C | 69% | 1021.3 hPa | 0 mm | 0.45 m/s, 62° | 193 W/m² | - |
* Rain latest hour (hover to see other rain measurements)
** Current wind speed in m/s (hover to see current wind gust speed)